Time,TemperatureF,DewpointF,PressureIn,WindDirection,WindDirectionDegrees,WindSpeedMPH,WindSpeedGustMPH,Humidity,HourlyPrecipIn,Conditions,Clouds,dailyrainin,SoftwareType,DateUTC
2013-02-20 00:01:00,22.0,22.0,-100.00,West,278,1.0,2.0,100,0.00,,,-99.99,,2013-02-20 07:01:00,
2013-02-20 00:11:00,22.0,22.0,-100.00,NW,320,4.0,4.0,100,0.00,,,-99.99,,2013-02-20 07:11:00,
2013-02-20 00:21:00,22.0,22.0,-100.00,NW,320,4.0,4.0,100,0.00,,,-99.99,,2013-02-20 07:21:00,
2013-02-20 00:31:00,22.0,22.0,-100.00,NW,320,4.0,4.0,100,0.00,,,-99.99,,2013-02-20 07:31:00,
2013-02-20 00:41:00,22.0,22.0,-100.00,NW,316,3.0,3.0,100,0.00,,,-99.99,,2013-02-20 07:41:00,
2013-02-20 00:52:00,22.0,22.0,-100.00,NW,311,2.0,3.0,100,0.00,,,-99.99,,2013-02-20 07:52:00,
2013-02-20 01:01:00,22.0,22.0,-100.00,NW,311,2.0,3.0,100,0.00,,,-99.99,,2013-02-20 08:01:00,
2013-02-20 01:11:00,22.0,22.0,-100.00,NW,313,2.0,4.0,100,0.00,,,-99.99,,2013-02-20 08:11:00,
2013-02-20 01:21:00,22.0,22.0,-100.00,NW,323,4.0,5.0,100,0.00,,,-99.99,,2013-02-20 08:21:00,
2013-02-20 01:31:00,22.0,22.0,-100.00,NW,323,4.0,5.0,100,0.00,,,-99.99,,2013-02-20 08:31:00,
2013-02-20 01:41:00,22.0,22.0,-100.00,NW,326,4.0,5.0,100,0.00,,,-99.99,,2013-02-20 08:41:00,
2013-02-20 01:52:00,22.0,22.0,-100.00,NW,322,6.0,7.0,100,0.00,,,-99.99,,2013-02-20 08:52:00,
2013-02-20 02:01:00,22.0,22.0,-100.00,NW,322,6.0,7.0,100,0.00,,,-99.99,,2013-02-20 09:01:00,
2013-02-20 02:11:00,22.0,22.0,-100.00,NW,322,6.0,7.0,100,0.00,,,-99.99,,2013-02-20 09:11:00,
2013-02-20 02:21:00,22.0,22.0,-100.00,NW,326,6.0,8.0,100,0.00,,,-99.99,,2013-02-20 09:21:00,
2013-02-20 02:31:00,22.0,22.0,-100.00,NW,326,6.0,8.0,100,0.00,,,-99.99,,2013-02-20 09:31:00,
2013-02-20 02:41:00,22.0,22.0,-100.00,NW,325,6.0,8.0,100,0.00,,,-99.99,,2013-02-20 09:41:00,
2013-02-20 02:52:00,22.0,22.0,-100.00,NW,318,4.0,6.0,100,0.04,,,-99.99,,2013-02-20 09:52:00,
2013-02-20 03:01:00,22.0,22.0,-100.00,NW,318,4.0,6.0,100,0.04,,,-99.99,,2013-02-20 10:01:00,
2013-02-20 03:12:00,22.0,22.0,-100.00,NW,323,5.0,6.0,100,0.04,,,-99.99,,2013-02-20 10:12:00,
2013-02-20 03:21:00,22.0,22.0,-100.00,NW,323,5.0,6.0,100,0.04,,,-99.99,,2013-02-20 10:21:00,
2013-02-20 03:31:00,22.0,22.0,-100.00,NW,323,5.0,6.0,100,0.04,,,-99.99,,2013-02-20 10:31:00,
2013-02-20 03:41:00,22.0,22.0,-100.00,NW,322,6.0,8.0,100,0.04,,,-99.99,,2013-02-20 10:41:00,
2013-02-20 03:52:00,22.0,22.0,-100.00,NW,318,5.0,6.0,100,0.04,,,-99.99,,2013-02-20 10:52:00,
2013-02-20 04:02:00,22.0,22.0,-100.00,NW,318,5.0,6.0,100,0.04,,,-99.99,,2013-02-20 11:02:00,
2013-02-20 04:11:00,22.0,22.0,-100.00,NW,325,6.0,9.0,100,0.04,,,-99.99,,2013-02-20 11:11:00,
2013-02-20 04:21:00,21.0,21.0,-100.00,NW,313,6.0,9.0,100,0.04,,,-99.99,,2013-02-20 11:21:00,
2013-02-20 04:31:00,21.0,21.0,-100.00,NW,313,6.0,9.0,100,0.04,,,-99.99,,2013-02-20 11:31:00,
2013-02-20 04:41:00,22.0,22.0,-100.00,NNW,328,8.0,10.0,100,0.00,,,-99.99,,2013-02-20 11:41:00,
2013-02-20 04:52:00,21.0,21.0,-100.00,NNW,330,7.0,9.0,100,0.00,,,-99.99,,2013-02-20 11:52:00,
2013-02-20 05:01:00,21.0,21.0,-100.00,NNW,330,7.0,9.0,100,0.00,,,-99.99,,2013-02-20 12:01:00,
2013-02-20 05:11:00,21.0,21.0,-100.00,NW,326,6.0,9.0,100,0.04,,,-99.99,,2013-02-20 12:11:00,
2013-02-20 05:21:00,21.0,21.0,-100.00,NW,326,6.0,9.0,100,0.04,,,-99.99,,2013-02-20 12:21:00,
2013-02-20 05:31:00,21.0,21.0,-100.00,NW,326,6.0,9.0,100,0.04,,,-99.99,,2013-02-20 12:31:00,
2013-02-20 05:42:00,21.0,21.0,-100.00,NW,318,7.0,11.0,100,0.04,,,-99.99,,2013-02-20 12:42:00,
2013-02-20 05:53:00,21.0,21.0,-100.00,NW,326,8.0,10.0,100,0.16,,,-99.99,,2013-02-20 12:53:00,
2013-02-20 06:01:00,21.0,21.0,-100.00,NW,326,8.0,10.0,100,0.16,,,-99.99,,2013-02-20 13:01:00,
2013-02-20 06:11:00,21.0,21.0,-100.00,NW,316,8.0,11.0,100,0.04,,,-99.99,,2013-02-20 13:11:00,
2013-02-20 06:22:00,21.0,21.0,-100.00,NW,316,8.0,11.0,100,0.04,,,-99.99,,2013-02-20 13:22:00,
2013-02-20 06:31:00,21.0,21.0,-100.00,NW,316,8.0,11.0,100,0.04,,,-99.99,,2013-02-20 13:31:00,
2013-02-20 06:42:00,21.0,21.0,-100.00,NW,320,7.0,11.0,100,0.04,,,-99.99,,2013-02-20 13:42:00,
2013-02-20 06:52:00,20.0,20.0,-100.00,NW,322,9.0,11.0,100,0.04,,,-99.99,,2013-02-20 13:52:00,
2013-02-20 07:01:00,20.0,20.0,-100.00,NW,322,9.0,11.0,100,0.04,,,-99.99,,2013-02-20 14:01:00,
2013-02-20 07:11:00,20.0,20.0,-100.00,NNW,330,11.0,15.0,100,0.04,,,-99.99,,2013-02-20 14:11:00,
2013-02-20 07:21:00,20.0,20.0,-100.00,NW,326,10.0,13.0,100,0.04,,,-99.99,,2013-02-20 14:21:00,
2013-02-20 07:32:00,20.0,20.0,-100.00,NW,326,10.0,13.0,100,0.04,,,-99.99,,2013-02-20 14:32:00,
2013-02-20 07:42:00,20.0,20.0,-100.00,NNW,328,10.0,13.0,100,0.00,,,-99.99,,2013-02-20 14:42:00,
2013-02-20 07:52:00,20.0,20.0,-100.00,NNW,328,12.0,16.0,100,0.00,,,-99.99,,2013-02-20 14:52:00,
2013-02-20 08:01:00,20.0,20.0,-100.00,NNW,328,12.0,16.0,100,0.00,,,-99.99,,2013-02-20 15:01:00,
2013-02-20 08:11:00,20.0,20.0,-100.00,NNW,328,12.0,15.0,99,0.08,,,-99.99,,2013-02-20 15:11:00,
2013-02-20 08:22:00,20.0,19.0,-100.00,NNW,329,12.0,14.0,99,0.08,,,-99.99,,2013-02-20 15:22:00,
2013-02-20 08:31:00,20.0,19.0,-100.00,NNW,329,12.0,14.0,99,0.08,,,-99.99,,2013-02-20 15:31:00,
2013-02-20 08:41:00,20.0,20.0,-100.00,NW,326,9.0,13.0,100,0.04,,,-99.99,,2013-02-20 15:41:00,
2013-02-20 08:52:00,20.0,20.0,-100.00,NW,323,10.0,14.0,99,0.08,,,-99.99,,2013-02-20 15:52:00,
2013-02-20 09:01:00,20.0,20.0,-100.00,NW,323,10.0,14.0,99,0.08,,,-99.99,,2013-02-20 16:01:00,
2013-02-20 09:11:00,20.0,20.0,-100.00,NW,320,10.0,15.0,99,0.04,,,-99.99,,2013-02-20 16:11:00,
2013-02-20 09:21:00,20.0,20.0,-100.00,NW,320,10.0,15.0,99,0.04,,,-99.99,,2013-02-20 16:21:00,
2013-02-20 09:32:00,20.0,20.0,-100.00,NW,320,10.0,15.0,99,0.04,,,-99.99,,2013-02-20 16:32:00,
2013-02-20 09:41:00,20.0,20.0,-100.00,NW,323,11.0,15.0,99,0.04,,,-99.99,,2013-02-20 16:41:00,
2013-02-20 09:52:00,20.0,20.0,-100.00,NW,323,13.0,16.0,100,0.04,,,-99.99,,2013-02-20 16:52:00,
2013-02-20 10:01:00,20.0,20.0,-100.00,NW,323,13.0,16.0,100,0.04,,,-99.99,,2013-02-20 17:01:00,
2013-02-20 10:11:00,20.0,19.0,-100.00,NW,319,9.0,14.0,99,0.04,,,-99.99,,2013-02-20 17:11:00,
2013-02-20 10:21:00,20.0,19.0,-100.00,NW,319,9.0,14.0,99,0.04,,,-99.99,,2013-02-20 17:21:00,
2013-02-20 10:32:00,20.0,19.0,-100.00,NW,319,9.0,14.0,99,0.04,,,-99.99,,2013-02-20 17:32:00,
2013-02-20 10:41:00,20.0,20.0,-100.00,NNW,328,12.0,17.0,99,0.00,,,-99.99,,2013-02-20 17:41:00,
2013-02-20 10:52:00,20.0,20.0,-100.00,NNW,328,11.0,15.0,99,0.00,,,-99.99,,2013-02-20 17:52:00,
2013-02-20 11:02:00,20.0,20.0,-100.00,NNW,328,11.0,15.0,99,0.00,,,-99.99,,2013-02-20 18:02:00,
2013-02-20 11:11:00,21.0,21.0,-100.00,NNW,330,10.0,13.0,100,0.04,,,-99.99,,2013-02-20 18:11:00,
2013-02-20 11:21:00,22.0,21.0,-100.00,NW,325,10.0,15.0,100,0.04,,,-99.99,,2013-02-20 18:21:00,
2013-02-20 11:31:00,22.0,21.0,-100.00,NW,325,10.0,15.0,100,0.04,,,-99.99,,2013-02-20 18:31:00,
2013-02-20 11:42:00,21.0,21.0,-100.00,NNW,329,12.0,16.0,99,0.00,,,-99.99,,2013-02-20 18:42:00,
2013-02-20 11:52:00,21.0,21.0,-100.00,NNW,329,12.0,16.0,99,0.00,,,-99.99,,2013-02-20 18:52:00,
2013-02-20 12:01:00,21.0,21.0,-100.00,NNW,329,12.0,16.0,99,0.00,,,-99.99,,2013-02-20 19:01:00,
2013-02-20 12:11:00,22.0,22.0,-100.00,NW,312,7.0,11.0,100,0.00,,,-99.99,,2013-02-20 19:11:00,
2013-02-20 12:21:00,22.0,22.0,-100.00,NW,326,10.0,14.0,100,0.00,,,-99.99,,2013-02-20 19:21:00,
2013-02-20 12:31:00,22.0,22.0,-100.00,NW,326,10.0,14.0,100,0.00,,,-99.99,,2013-02-20 19:31:00,
2013-02-20 12:41:00,22.0,22.0,-100.00,NW,318,9.0,12.0,100,0.00,,,-99.99,,2013-02-20 19:41:00,
2013-02-20 12:52:00,22.0,22.0,-100.00,NW,318,9.0,12.0,100,0.00,,,-99.99,,2013-02-20 19:52:00,
2013-02-20 13:00:00,22.0,22.0,-100.00,NW,308,9.0,14.0,100,0.00,,,-99.99,,2013-02-20 20:00:00,
2013-02-20 13:01:00,22.0,22.0,-100.00,NW,318,9.0,12.0,100,0.00,,,-99.99,,2013-02-20 20:01:00,
2013-02-20 13:11:00,22.0,22.0,-100.00,NW,320,10.0,13.0,100,0.00,,,-99.99,,2013-02-20 20:11:00,
2013-02-20 13:21:00,22.0,22.0,-100.00,NW,308,9.0,14.0,100,0.00,,,-99.99,,2013-02-20 20:21:00,
2013-02-20 13:31:00,22.0,22.0,-100.00,NW,308,9.0,14.0,100,0.00,,,-99.99,,2013-02-20 20:31:00,
2013-02-20 13:41:00,22.0,22.0,-100.00,NW,308,9.0,14.0,100,0.00,,,-99.99,,2013-02-20 20:41:00,
2013-02-20 13:51:00,22.0,22.0,-100.00,NW,308,9.0,14.0,100,0.00,,,-99.99,,2013-02-20 20:51:00,
2013-02-20 14:21:00,23.0,22.0,-100.00,NNW,336,9.0,12.0,97,0.00,,,-99.99,,2013-02-20 21:21:00,
2013-02-20 14:31:00,23.0,22.0,-100.00,NNW,336,9.0,12.0,97,0.00,,,-99.99,,2013-02-20 21:31:00,
2013-02-20 14:41:00,23.0,21.0,-100.00,NNW,328,9.0,14.0,93,0.00,,,-99.99,,2013-02-20 21:41:00,
2013-02-20 14:52:00,22.0,21.0,-100.00,NNW,335,8.0,10.0,95,0.00,,,-99.99,,2013-02-20 21:52:00,
2013-02-20 15:01:00,22.0,21.0,-100.00,NNW,335,8.0,10.0,95,0.00,,,-99.99,,2013-02-20 22:01:00,
2013-02-20 15:11:00,23.0,21.0,-100.00,NW,318,9.0,12.0,92,0.00,,,-99.99,,2013-02-20 22:11:00,
2013-02-20 15:21:00,23.0,21.0,-100.00,NW,318,9.0,12.0,92,0.00,,,-99.99,,2013-02-20 22:21:00,
2013-02-20 15:31:00,22.0,20.0,-100.00,NNW,335,8.0,11.0,93,0.00,,,-99.99,,2013-02-20 22:31:00,
2013-02-20 15:41:00,22.0,20.0,-100.00,NNW,335,8.0,11.0,93,0.00,,,-99.99,,2013-02-20 22:41:00,
2013-02-20 15:51:00,22.0,20.0,-100.00,NW,320,10.0,15.0,93,0.00,,,-99.99,,2013-02-20 22:51:00,
2013-02-20 16:01:00,22.0,20.0,-100.00,NW,320,10.0,15.0,93,0.00,,,-99.99,,2013-02-20 23:01:00,
2013-02-20 16:12:00,22.0,20.0,-100.00,NNW,328,9.0,13.0,93,0.00,,,-99.99,,2013-02-20 23:12:00,
2013-02-20 16:22:00,22.0,20.0,-100.00,NNW,328,9.0,13.0,93,0.00,,,-99.99,,2013-02-20 23:22:00,
2013-02-20 16:31:00,22.0,20.0,-100.00,NNW,328,9.0,13.0,93,0.00,,,-99.99,,2013-02-20 23:31:00,
2013-02-20 16:42:00,21.0,19.0,-100.00,NW,315,9.0,17.0,94,0.04,,,-99.99,,2013-02-20 23:42:00,
2013-02-20 16:52:00,21.0,19.0,-100.00,NW,325,10.0,13.0,94,0.00,,,-99.99,,2013-02-20 23:52:00,
2013-02-20 17:02:00,21.0,19.0,-100.00,NW,325,10.0,13.0,94,0.00,,,-99.99,,2013-02-21 00:02:00,
2013-02-20 17:11:00,20.0,20.0,-100.00,NW,318,6.0,10.0,97,0.08,,,-99.99,,2013-02-21 00:11:00,
2013-02-20 17:21:00,20.0,19.0,-100.00,NNW,332,8.0,11.0,98,0.04,,,-99.99,,2013-02-21 00:21:00,
2013-02-20 17:32:00,20.0,19.0,-100.00,NNW,332,8.0,11.0,98,0.04,,,-99.99,,2013-02-21 00:32:00,
2013-02-20 17:42:00,20.0,19.0,-100.00,NW,322,7.0,9.0,98,0.04,,,-99.99,,2013-02-21 00:42:00,
2013-02-20 17:52:00,19.0,19.0,-100.00,NW,322,6.0,10.0,98,0.24,,,-99.99,,2013-02-21 00:52:00,
2013-02-20 18:01:00,19.0,19.0,-100.00,NW,322,6.0,10.0,98,0.24,,,-99.99,,2013-02-21 01:01:00,
2013-02-20 18:11:00,19.0,18.0,-100.00,NW,313,5.0,9.0,97,0.00,,,-99.99,,2013-02-21 01:11:00,
2013-02-20 18:21:00,19.0,18.0,-100.00,NW,313,5.0,9.0,97,0.00,,,-99.99,,2013-02-21 01:21:00,
2013-02-20 18:32:00,19.0,18.0,-100.00,NW,313,5.0,9.0,97,0.00,,,-99.99,,2013-02-21 01:32:00,
2013-02-20 18:41:00,19.0,18.0,-100.00,NW,320,6.0,9.0,97,0.00,,,-99.99,,2013-02-21 01:41:00,
2013-02-20 18:52:00,19.0,18.0,-100.00,NW,312,4.0,7.0,97,0.04,,,-99.99,,2013-02-21 01:52:00,
2013-02-20 19:01:00,19.0,18.0,-100.00,NW,312,4.0,7.0,97,0.04,,,-99.99,,2013-02-21 02:01:00,
2013-02-20 19:11:00,19.0,18.0,-100.00,NW,308,3.0,5.0,97,0.08,,,-99.99,,2013-02-21 02:11:00,
2013-02-20 19:21:00,18.0,18.0,-100.00,WNW,298,3.0,5.0,98,0.00,,,-99.99,,2013-02-21 02:21:00,
2013-02-20 19:32:00,18.0,18.0,-100.00,WNW,298,3.0,5.0,98,0.00,,,-99.99,,2013-02-21 02:32:00,
2013-02-20 19:42:00,18.0,18.0,-100.00,WNW,298,3.0,5.0,98,0.00,,,-99.99,,2013-02-21 02:42:00,
2013-02-20 20:01:00,18.0,18.0,-100.00,NW,311,1.0,2.0,97,0.00,,,-99.99,,2013-02-21 03:01:00,
2013-02-20 20:11:00,18.0,18.0,-100.00,NW,316,3.0,7.0,97,0.04,,,-99.99,,2013-02-21 03:11:00,
2013-02-20 20:21:00,18.0,17.0,-100.00,WNW,289,3.0,5.0,97,0.00,,,-99.99,,2013-02-21 03:21:00,
2013-02-20 20:31:00,18.0,17.0,-100.00,WNW,289,3.0,5.0,97,0.00,,,-99.99,,2013-02-21 03:31:00,
2013-02-20 20:41:00,17.0,17.0,-100.00,NNW,328,4.0,7.0,97,0.00,,,-99.99,,2013-02-21 03:41:00,
2013-02-20 20:52:00,17.0,17.0,-100.00,NW,316,4.0,5.0,97,0.04,,,-99.99,,2013-02-21 03:52:00,
2013-02-20 21:01:00,17.0,17.0,-100.00,NW,316,4.0,5.0,97,0.04,,,-99.99,,2013-02-21 04:01:00,
2013-02-20 21:11:00,17.0,17.0,-100.00,NNW,339,4.0,6.0,97,0.04,,,-99.99,,2013-02-21 04:11:00,
2013-02-20 21:21:00,17.0,16.0,-100.00,NNW,328,3.0,5.0,97,0.00,,,-99.99,,2013-02-21 04:21:00,
2013-02-20 21:31:00,17.0,16.0,-100.00,NNW,328,3.0,5.0,97,0.00,,,-99.99,,2013-02-21 04:31:00,
2013-02-20 21:41:00,17.0,16.0,-100.00,NW,306,2.0,5.0,96,0.00,,,-99.99,,2013-02-21 04:41:00,
2013-02-20 21:52:00,17.0,16.0,-100.00,NW,311,1.0,3.0,96,0.04,,,-99.99,,2013-02-21 04:52:00,
2013-02-20 22:02:00,17.0,16.0,-100.00,NW,311,1.0,3.0,96,0.04,,,-99.99,,2013-02-21 05:02:00,
2013-02-20 22:12:00,17.0,16.0,-100.00,NW,313,3.0,4.0,96,0.00,,,-99.99,,2013-02-21 05:12:00,
2013-02-20 22:22:00,16.0,15.0,-100.00,WNW,291,4.0,6.0,95,0.00,,,-99.99,,2013-02-21 05:22:00,
2013-02-20 22:33:00,16.0,15.0,-100.00,WNW,291,4.0,6.0,95,0.00,,,-99.99,,2013-02-21 05:33:00,
2013-02-20 22:43:00,16.0,15.0,-100.00,NNW,344,2.0,4.0,95,0.00,,,-99.99,,2013-02-21 05:43:00,
2013-02-20 23:01:00,16.0,15.0,-100.00,NNW,347,2.0,2.0,95,0.00,,,-99.99,,2013-02-21 06:01:00,
2013-02-20 23:11:00,15.0,15.0,-100.00,NW,304,2.0,2.0,95,0.00,,,-99.99,,2013-02-21 06:11:00,
2013-02-20 23:21:00,15.0,14.0,-100.00,NW,309,2.0,2.0,96,0.00,,,-99.99,,2013-02-21 06:21:00,
2013-02-20 23:31:00,15.0,14.0,-100.00,NW,309,2.0,2.0,96,0.00,,,-99.99,,2013-02-21 06:31:00,
2013-02-20 23:41:00,15.0,13.0,-100.00,WNW,298,2.0,5.0,96,0.00,,,-99.99,,2013-02-21 06:41:00,
2013-02-20 23:51:00,15.0,13.0,-100.00,North,349,1.0,3.0,94,0.00,,,-99.99,,2013-02-21 06:51:00,